TimeCDT,TemperatureF,Dew PointF,Humidity,Sea Level PressureIn,VisibilityMPH,Wind Direction,Wind SpeedMPH,Gust SpeedMPH,PrecipitationIn,Events,Conditions,WindDirDegrees,DateUTC
12:15 AM,39.2,26.6,61,30.06,10.0,NNW,9.2,-,N/A,,Clear,340,2013-04-05 05:15:00
12:35 AM,37.4,26.6,65,30.07,10.0,NNW,6.9,-,N/A,,Clear,340,2013-04-05 05:35:00
12:55 AM,37.4,26.6,65,30.07,10.0,North,5.8,-,N/A,,Clear,350,2013-04-05 05:55:00
1:15 AM,37.4,26.6,65,30.07,10.0,Calm,Calm,-,N/A,,Clear,0,2013-04-05 06:15:00
1:35 AM,37.4,26.6,65,30.07,10.0,NNW,3.5,-,N/A,,Clear,330,2013-04-05 06:35:00
1:55 AM,35.6,26.6,70,30.07,10.0,NNW,5.8,-,N/A,Snow,Light Snow,330,2013-04-05 06:55:00
2:15 AM,35.6,26.6,70,30.08,10.0,NNW,5.8,-,N/A,,Clear,330,2013-04-05 07:15:00
2:35 AM,35.6,26.6,70,30.09,10.0,North,6.9,-,N/A,,Clear,350,2013-04-05 07:35:00
2:55 AM,35.6,26.6,70,30.09,10.0,North,8.1,-,N/A,,Clear,360,2013-04-05 07:55:00
3:15 AM,33.8,26.6,75,30.09,10.0,North,6.9,-,N/A,,Clear,360,2013-04-05 08:15:00
3:35 AM,33.8,24.8,70,30.10,10.0,North,5.8,-,N/A,,Clear,360,2013-04-05 08:35:00
3:55 AM,33.8,26.6,75,30.11,10.0,North,6.9,-,N/A,,Clear,10,2013-04-05 08:55:00
4:15 AM,33.8,24.8,70,30.11,10.0,North,5.8,-,N/A,,Clear,10,2013-04-05 09:15:00
4:35 AM,33.8,24.8,70,30.12,10.0,North,5.8,-,N/A,,Clear,10,2013-04-05 09:35:00
4:55 AM,33.8,23.0,65,30.13,10.0,North,5.8,-,N/A,,Clear,10,2013-04-05 09:55:00
5:15 AM,33.8,23.0,65,30.14,10.0,North,5.8,-,N/A,,Clear,10,2013-04-05 10:15:00
5:55 AM,32.0,23.0,69,30.15,10.0,North,4.6,-,N/A,,Clear,360,2013-04-05 10:55:00
6:15 AM,32.0,23.0,69,30.16,10.0,North,3.5,-,N/A,,Clear,360,2013-04-05 11:15:00
6:35 AM,32.0,23.0,69,30.17,10.0,North,4.6,-,N/A,,Clear,10,2013-04-05 11:35:00
6:55 AM,32.0,23.0,69,30.17,10.0,North,5.8,-,N/A,,Clear,10,2013-04-05 11:55:00
7:15 AM,32.0,23.0,69,30.18,10.0,North,5.8,-,N/A,,Clear,10,2013-04-05 12:15:00
7:35 AM,33.8,23.0,65,30.19,10.0,North,4.6,-,N/A,,Clear,10,2013-04-05 12:35:00
7:55 AM,35.6,24.8,65,30.19,10.0,North,5.8,-,N/A,,Clear,10,2013-04-05 12:55:00
8:15 AM,35.6,24.8,65,30.20,10.0,NNE,6.9,-,N/A,,Clear,30,2013-04-05 13:15:00
8:35 AM,37.4,23.0,56,30.20,10.0,NE,8.1,-,N/A,,Clear,40,2013-04-05 13:35:00
8:55 AM,37.4,23.0,56,30.20,10.0,ENE,8.1,-,N/A,,Clear,60,2013-04-05 13:55:00
9:15 AM,39.2,21.2,49,30.21,10.0,ENE,9.2,-,N/A,,Clear,60,2013-04-05 14:15:00
9:35 AM,41.0,21.2,45,30.21,10.0,East,8.1,-,N/A,,Clear,90,2013-04-05 14:35:00
9:55 AM,41.0,21.2,45,30.21,10.0,ENE,5.8,-,N/A,,Clear,60,2013-04-05 14:55:00
10:15 AM,42.8,21.2,42,30.21,10.0,ENE,6.9,-,N/A,,Clear,70,2013-04-05 15:15:00
10:55 AM,42.8,17.6,36,30.21,10.0,ENE,9.2,16.1,N/A,,Clear,70,2013-04-05 15:55:00
11:15 AM,44.6,17.6,34,30.21,10.0,ESE,6.9,-,N/A,,Clear,120,2013-04-05 16:15:00
11:35 AM,44.6,19.4,37,30.20,10.0,ENE,9.2,-,N/A,,Clear,60,2013-04-05 16:35:00
11:55 AM,44.6,19.4,37,30.20,10.0,SE,4.6,-,N/A,,Clear,140,2013-04-05 16:55:00
12:15 PM,46.4,17.6,32,30.20,10.0,SE,3.5,-,N/A,,Clear,140,2013-04-05 17:15:00
12:35 PM,46.4,17.6,32,30.19,10.0,Calm,Calm,-,N/A,,Clear,0,2013-04-05 17:35:00
12:55 PM,46.4,19.4,34,30.19,10.0,ENE,8.1,-,N/A,,Clear,70,2013-04-05 17:55:00
1:15 PM,46.4,19.4,34,30.18,10.0,East,4.6,-,N/A,,Clear,90,2013-04-05 18:15:00
1:35 PM,46.4,15.8,29,30.18,10.0,Calm,Calm,-,N/A,,Clear,0,2013-04-05 18:35:00
1:55 PM,48.2,17.6,30,30.16,10.0,ENE,8.1,-,N/A,,Clear,70,2013-04-05 18:55:00
2:15 PM,48.2,17.6,30,30.16,10.0,East,5.8,-,N/A,,Clear,100,2013-04-05 19:15:00
2:35 PM,50.0,14.0,24,30.15,10.0,Calm,Calm,-,N/A,,Clear,0,2013-04-05 19:35:00
2:55 PM,50.0,15.8,26,30.14,10.0,SE,3.5,-,N/A,,Clear,130,2013-04-05 19:55:00
3:15 PM,50.0,17.6,28,30.13,10.0,East,8.1,-,N/A,,Clear,90,2013-04-05 20:15:00
3:35 PM,50.0,17.6,28,30.13,10.0,ESE,4.6,-,N/A,,Mostly Cloudy,120,2013-04-05 20:35:00
3:55 PM,50.0,17.6,28,30.13,10.0,South,4.6,-,N/A,,Overcast,180,2013-04-05 20:55:00
4:15 PM,50.0,19.4,30,30.12,10.0,SE,5.8,-,N/A,,Overcast,130,2013-04-05 21:15:00
4:35 PM,50.0,17.6,28,30.12,10.0,Calm,Calm,-,N/A,,Overcast,0,2013-04-05 21:35:00
4:55 PM,48.2,15.8,27,30.12,10.0,SSE,3.5,-,N/A,,Overcast,160,2013-04-05 21:55:00
5:15 PM,48.2,17.6,30,30.12,10.0,SSE,4.6,-,N/A,,Overcast,160,2013-04-05 22:15:00
5:35 PM,50.0,17.6,28,30.12,10.0,SSE,3.5,-,N/A,,Overcast,150,2013-04-05 22:35:00
5:55 PM,48.2,19.4,32,30.12,10.0,SE,5.8,-,N/A,,Overcast,140,2013-04-05 22:55:00
6:15 PM,48.2,19.4,32,30.10,10.0,ESE,6.9,-,N/A,,Overcast,120,2013-04-05 23:15:00
6:35 PM,46.4,19.4,34,30.09,10.0,ESE,9.2,-,N/A,,Overcast,120,2013-04-05 23:35:00
6:55 PM,46.4,21.2,37,30.09,10.0,ESE,5.8,-,N/A,,Overcast,120,2013-04-05 23:55:00
7:15 PM,46.4,21.2,37,30.08,10.0,ESE,5.8,-,N/A,,Overcast,120,2013-04-06 00:15:00
7:35 PM,46.4,21.2,37,30.07,10.0,East,6.9,-,N/A,,Overcast,90,2013-04-06 00:35:00
7:55 PM,46.4,21.2,37,30.07,10.0,ESE,6.9,-,N/A,,Overcast,110,2013-04-06 00:55:00
8:15 PM,44.6,23.0,43,30.08,10.0,ESE,5.8,-,N/A,,Mostly Cloudy,120,2013-04-06 01:15:00
8:35 PM,44.6,21.2,39,30.07,10.0,ESE,8.1,-,N/A,,Mostly Cloudy,110,2013-04-06 01:35:00
8:55 PM,44.6,23.0,43,30.08,10.0,ESE,5.8,-,N/A,,Mostly Cloudy,110,2013-04-06 01:55:00
9:15 PM,44.6,23.0,43,30.07,10.0,ESE,9.2,-,N/A,,Mostly Cloudy,110,2013-04-06 02:15:00
9:35 PM,44.6,24.8,46,30.06,10.0,East,8.1,-,N/A,,Mostly Cloudy,90,2013-04-06 02:35:00
9:55 PM,42.8,24.8,49,30.06,10.0,East,10.4,-,N/A,,Overcast,100,2013-04-06 02:55:00
10:15 PM,42.8,26.6,53,30.05,10.0,East,10.4,-,N/A,,Overcast,100,2013-04-06 03:15:00
10:35 PM,42.8,28.4,57,30.05,10.0,ESE,17.3,20.7,N/A,,Overcast,120,2013-04-06 03:35:00
10:55 PM,41.0,28.4,61,30.04,10.0,ESE,11.5,-,N/A,,Overcast,110,2013-04-06 03:55:00
11:15 PM,41.0,28.4,61,30.05,10.0,ESE,16.1,20.7,N/A,,Overcast,120,2013-04-06 04:15:00
11:35 PM,41.0,28.4,61,30.05,10.0,ESE,16.1,19.6,N/A,,Mostly Cloudy,120,2013-04-06 04:35:00
11:55 PM,39.2,28.4,65,30.04,10.0,ESE,16.1,23.0,N/A,,Clear,120,2013-04-06 04:55:00